User: anonymous   Login
Location: Harwich
(41.7160°N, 69.9939°W)
Time: 23:31:40
(UTC+02:00)
Language:

Transit 2A - Orbit

View from above orbital plane
View from above orbital plane
View from above satellite
View from above satellite

Ground track
Ground track

The orbit data is extracted from the following two-line orbital elements,

1 00045U 60007A   24151.48878933  .00000561  00000-0  16337-3 0  9990
2 00045  66.6918 176.3095 0254908 343.1644  16.1106 14.34714448272737
Epoch (UTC): 30 May 2024 11:43:51
Eccentricity: 0.0254908
inclination: 66.6918°
perigee height: 593 km
apogee height: 958 km
right ascension of ascending node: 176.3095°
argument of perigee: 343.1644°
revolutions per day: 14.34714448
mean anomaly at epoch: 16.1106°
orbit number at epoch: 27273

The dashed part of the orbit path shows where the satellite is in the earth's shadow,  

DLR